www.pogodaiklimat.ru

Погода и климат >> Архив погоды >> Малайзия >> Ipoh


ПОГОДА в Ipoh

  • Прогноз погоды в Ipoh
  • Монитор погоды в Ipoh
  • Климат города

АРХИВ ПОГОДЫ в Ipoh

Время (UTC), дата Ветер
(напр.,м/с)
 
Видим.   Явления Облачность Т
(С)
Тd
(С)
f
(%)
Тe
(С)
Тes
(С)
Комфортность P
(гПа)
Po
(гПа)
Тmin
(С)
Tmax
(С)
R
(мм)
R24
(мм)
S
(см)
00 13.09 Ю 2 6000 м слабый дождь 10/5 300 м
[Sc Ac trans Cs]
+23.9 +23.0 95 +32 +32 очень
душно
1011.5 1006.8 +23.1 0.2
06 13.09 Ю 2 14 км мгла 9/4 600 м
[Cu hum Ac trans Ci sp]
+29.9 +21.9 62 +38 +46 очень
душно
1009.8 1005.1 0.4
12 13.09 штиль 0 10 км в посл. час гроза 9/3 900 м
[Sc Ac trans Cs]
+27.3 +23.5 80 +37 +37 очень
душно
1009.2 1004.5 +31.1
18 13.09 СВ 2 8000 м мгла 9/1 150 м
[Sc Ac trans Ci sp]
+25.5 +23.5 89 +35 +35 очень
душно
1010.3 1005.6
00 14.09 С 3 10 км мгла 9/3 150 м
[Cu Sc Ac trans Ci sp]
+24.3 +22.7 91 +32 +32 очень
душно
1009.6 1004.9 +23.7 0.4
06 14.09 СЗ 2 10 км мгла 9/4 500 м
[Cb cap Ac trans Ci sp]
+32.5 +23.6 60 +44 +52 опасность
перегрева
1008.2 1003.5
12 14.09 СВ 2 10 км мгла 9/4 840 м
[Sc Ac trans Ci sp]
+25.6 +23.3 87 +34 +34 очень
душно
1009.4 1004.7 +32.6 2
18 14.09 СВ 2 10 км зарница 9/4 210 м
[Cb cap Ac trans Ci sp]
+24.9 +23.4 91 +33 +33 очень
душно
1010.0 1005.3
00 15.09 СВ 3 10 км мгла 9/3 600 м
[Cu Sc Ac trans Ci sp]
+24.5 +22.9 91 +32 +33 очень
душно
1010.3 1005.6 +24.0 2
06 15.09 В 2 10 км слабый ливневой дождь 9/5 500 м
[Cb cap Ac trans Ci sp]
+28.0 +25.8 88 +42 +48 опасность
перегрева
1008.5 1003.8 1
12 15.09 В 1 10 км мгла {дождь} 9/3 900 м
[Sc Ac lent Ci sp]
+26.5 +24.7 90 +38 +38 очень
душно
1007.8 1003.1 +31.6 3
18 15.09 С 2 10 км мгла 9/3 900 м
[Sc Ac trans Ci sp]
+25.6 +23.1 86 +34 +34 очень
душно
1008.3 1003.6
00 16.09 З 3 4000 м дождь 9/5 150 м
[Cb cap Ac trans Ci sp]
+23.7 +23.3 98 +32 +32 очень
душно
1009.4 1004.7 +23.7 20
06 16.09 Ю 3 12 км мгла 9/3 600 м
[Cu med, cong Ac lent Ci sp]
+30.4 +23.4 66 +41 +49 опасность
перегрева
1007.0 1002.3 16
12 16.09 СЗ 1 10 км мгла 9/1 900 м
[Sc Ac trans Cs]
+26.7 +24.4 87 +37 +37 очень
душно
1006.8 1002.1 +31.3
18 16.09 штиль 0 9000 м зарница 9/4 500 м
[Cb cap Ac lent Ci sp]
+25.3 +24.0 93 +35 +35 очень
душно
1008.1 1003.4
00 17.09 СЗ 1 8000 м мгла 9/3 600 м
[Cu hum Ac lent Ci sp]
+24.6 +23.5 94 +33 +34 очень
душно
1008.6 1003.9 +23.4 16
06 17.09 ЮЗ 4 13 км мгла 9/1 600 м
[Cu hum Ac trans Cs]
+32.4 +23.0 58 +43 +50 опасность
перегрева
1007.0 1002.3
12 17.09 ЮЗ 3 10 км мгла 9/1 900 м
[Sc Ac und Ci sp]
+27.1 +21.9 73 +35 +35 очень
душно
1007.8 1003.1 +32.7
18 17.09 ЮВ 1 9000 м мгла 9/1 900 м
[Sc Ac trans Ci sp]
+25.4 +23.1 87 +34 +34 очень
душно
1010.6 1005.9
00 18.09 штиль 0 8000 м слабый ливневой дождь, в посл. час гроза 10/4 120 м
[Cb cap Ac trans Cs]
+22.2 +21.9 98 +29 +30 очень
душно
1011.9 1007.1 +22.0 20
06 18.09 З 1 12 км мгла {дождь} 9/1 600 м
[Cu med, cong Ac lent Cs]
+29.9 +21.7 61 +38 +50 очень
душно
1009.6 1004.9 0.8
12 18.09 штиль 0 11 км мгла 9/3 900 м
[Sc Ac trans Ci sp]
+26.7 +23.8 84 +37 +37 очень
душно
1009.0 1004.3 +31.1
18 18.09 В 2 10 км мгла 9/1 900 м
[Sc Ac und Ci sp]
+24.5 +20.7 79 +30 +30 очень
душно
1009.9 1005.1
00 19.09 СВ 4 12 км мгла 9/3 900 м
[Sc Ac trans Ci sp]
+24.2 +20.8 81 +30 +30 очень
душно
1010.9 1006.1 +22.2 0.8
06 19.09 Ю 1 12 км мгла 9/3 600 м
[Cu hum Ac trans Ci sp]
+32.5 +22.9 57 +43 +52 опасность
перегрева
1008.9 1004.2
12 19.09 Ю 2 10 км мгла 9/3 900 м
[Sc Ac trans Ci sp]
+29.0 +24.3 76 +41 +41 опасность
перегрева
1008.5 1003.8 +33.2
18 19.09 В 1 10 км мгла 9/3 900 м
[Sc Ac trans Ci sp]
+26.3 +24.5 90 +37 +37 очень
душно
1009.8 1005.1

 

Местоположение метеостанции Ipoh (Малайзия): широта 4.57 долгота 101.10 высота над уровнем моря 39 м.

В архиве по умолчанию представлена погода в Ipoh за последнюю неделю. Архивные данные за месяц целиком и за предыдущие месяцы, начиная с января 2011 года, Вы можете получить, выбрав интересующий диапазон дат из раскрывающегося списка и нажав кнопку "Ввод!".


*Определитесь, кто Вы:
робот инопланетянин человек

Внимание! Время в таблицах - всемирное. Для получения местного времени необходимо прибавить поправку, которая в Ipoh равна 7 ч.

Смотрите также архив погоды в соседних городах и на ближайших метеорологических станциях:

Погода в Cameron Highlands (Малайзия) (32 км)
Погода в Sitiawan (Малайзия) (59 км)
Погода в Penang (Малайзия) (124 км)
Погода в Butterworth Air Base (Малайзия) (128 км)
Погода в Kuala Lumpur (Малайзия) (169 км)
Погода в Alor Star (Малайзия) (197 км)
Погода в Kuala Lumpur Int Airport (Малайзия) (216 км)
Погода в Yala Agromet (Таиланд) (218 км)
Погода в Narathiwat (Таиланд) (220 км)
Погода в Kota Bharu (Малайзия) (221 км)

Пояснения к столбцам:

Ветер - указаны скорость ветра в м/с - средняя за 10 мин, порывы в срок и между сроками (в фигурных скобках) и направление, откуда дует ветер: С - северный, СВ - северо-восточный, В - восточный, ЮВ - юго-восточный, Ю - южный, ЮЗ - юго-западный, З - западный, СЗ - северо-западный.
Видимость - горизонтальная дальность видимости в метрах или километрах. При видимости от 1 до 10 км при отсутствии осадков обычно наблюдается дымка, при ухудшении видимости до 1 км и менее - туман. В сухую погоду видимость может ухудшаться дымом, пылью или мглою.
Явления - указаны атмосферные явления, наблюдавшиеся в срок или в последний час перед сроком; фигурными скобками обозначены явления, наблюдавшиеся между сроками (за 1-3 часа до срока); квадратными скобками обозначены град или гололедные отложения с указанием их диаметра в мм.
Облачность - указаны через наклонную черту общая и нижняя облачность в баллах и высота нижней границы облаков в метрах; квадратными скобками обозначены формы облаков: Ci - перистые, Cs - перисто-слоистые, Cc - перисто-кучевые, Ac - высококучевые, As - высокослоистые, Sc - слоисто-кучевые, Ns - слоисто-дождевые, Cu - кучевые, Cb - кучево-дождевые. Подробнее классификацию облаков см. в Атласе облаков (PDF).
T - Температура воздуха - температура, измеренная на высоте 2 м над землей.
Td - Температура точки росы - температура, при понижении до которой содержащийся в воздухе водяной пар достигнет насыщения.
f - Относительная влажность воздуха - влажноcть воздуха, измеренная на высоте 2 м над землей.
Te - Эффективная температура - температура, которую ощущает одетый по сезону человек в тени. Характеристика душности погоды. При расчете учитывается влияние влажности воздуха и скорости ветра на теплоощущения человека.
Tes - Эффективная температура на солнце - температура, которую ощущает человек, с поправкой на солнечный нагрев. Характеристика знойности погоды. Зависит от высоты солнца над горизонтом, облачности и скорости ветра. Ночью, в пасмурную погоду, а также при ветре 12 м/с и более поправка равна нулю.
P - Атмосферное давление - приведенное к уровню моря атмосферное давление.
Po - Атмосферное давление - измеренное на уровне метеостанции атмосферное давление.
Tmin - Минимальная температура - минимум температуры воздуха на высоте 2 м над землей.
Tmax - Максимальная температура - максимум температуры воздуха на высоте 2 м над землей.
R - Количество осадков - Количество выпавших осадков за период времени, мм. При наведении курсора мыши на число - период времени, за который выпало указанное количество осадков.
R24 - Количество осадков - Количество выпавших осадков за 24 часа, мм.
S - Снежный покров - Высота снежного покрова, см. При наведении курсора мыши на число - состояние снежного покрова и степень покрытия местности в баллах.